User: anonymous   Login
Location: Friendly Valley
(37.6901°N, 89.9107°W)
Time: 18:58:19
(UTC+00:00)
Language:

NOAA 19 - Orbit

View from above orbital plane
View from above orbital plane
View from above satellite
View from above satellite

Ground track
Ground track

The orbit data is extracted from the following two-line orbital elements,

1 33591U 09005A   24340.57806565  .00000455  00000-0  26729-3 0  9993
2 33591  99.0256  38.0171 0014080 165.5927 194.5649 14.13220839815579
Epoch (UTC): 05 December 2024 13:52:24
Eccentricity: 0.0014080
inclination: 99.0256°
perigee height: 838 km
apogee height: 858 km
right ascension of ascending node: 38.0171°
argument of perigee: 165.5927°
revolutions per day: 14.13220839
mean anomaly at epoch: 194.5649°
orbit number at epoch: 81557

The dashed part of the orbit path shows where the satellite is in the earth's shadow,  

DLR